NKS1377 KMCO-KFLL

Flight info

Callsign NKS1377
Flight time 0h 45m
Altitude 24000
Route DDANY3 JIPOD CUUDA3
Aircraft A320/M-SDE3FGHIRWY/LB1

Departure

Time 2026-05-03 22:50
Airport Orlando International Airport (KMCO)

Arrival

Time 2026-05-03 23:35
Airport Fort Lauderdale Hollywood International Airport (KFLL)
Time Latitude Longitude Altitude Speed Heading
2026-05-03 22:18 28.43348 -81.31529 97 ft 0 kts 338°
2026-05-03 22:31 28.43334 -81.31523 96 ft 4 kts 338°
2026-05-03 22:31 28.43313 -81.31514 93 ft 3 kts 337°
2026-05-03 22:31 28.43296 -81.31499 93 ft 4 kts 273°
2026-05-03 22:31 28.43304 -81.31476 92 ft 4 kts 237°
2026-05-03 22:32 28.43307 -81.31469 92 ft 0 kts 237°
2026-05-03 22:38 28.43300 -81.31483 96 ft 3 kts 237°
2026-05-03 22:38 28.43281 -81.31514 94 ft 6 kts 236°
2026-05-03 22:38 28.43265 -81.31563 94 ft 8 kts 265°
2026-05-03 22:39 28.43274 -81.31630 94 ft 8 kts 281°
2026-05-03 22:39 28.43280 -81.31662 97 ft 4 kts 282°
2026-05-03 22:39 28.43277 -81.31731 98 ft 11 kts 256°
2026-05-03 22:39 28.43232 -81.31815 98 ft 14 kts 235°
2026-05-03 22:40 28.43131 -81.31841 99 ft 17 kts 180°
2026-05-03 22:40 28.43007 -81.31839 99 ft 19 kts 179°
2026-05-03 22:40 28.42871 -81.31837 98 ft 19 kts 182°
2026-05-03 22:40 28.42744 -81.31834 100 ft 18 kts 179°
2026-05-03 22:41 28.42616 -81.31833 102 ft 19 kts 180°
2026-05-03 22:41 28.42498 -81.31833 101 ft 14 kts 179°
2026-05-03 22:41 28.42395 -81.31832 100 ft 16 kts 177°
2026-05-03 22:41 28.42347 -81.31731 99 ft 18 kts 89°
2026-05-03 22:42 28.42349 -81.31579 97 ft 21 kts 89°
2026-05-03 22:42 28.42352 -81.31403 95 ft 24 kts 89°
2026-05-03 22:42 28.42346 -81.31209 94 ft 25 kts 98°
2026-05-03 22:42 28.42317 -81.31030 94 ft 23 kts 94°
2026-05-03 22:43 28.42324 -81.30841 94 ft 22 kts 87°
2026-05-03 22:43 28.42336 -81.30686 96 ft 18 kts 85°
2026-05-03 22:43 28.42347 -81.30531 94 ft 21 kts 85°
2026-05-03 22:43 28.42357 -81.30356 94 ft 23 kts 88°
2026-05-03 22:44 28.42362 -81.30168 94 ft 25 kts 88°
2026-05-03 22:44 28.42356 -81.29995 94 ft 20 kts 90°
2026-05-03 22:44 28.42362 -81.29845 95 ft 19 kts 85°
2026-05-03 22:44 28.42285 -81.29791 96 ft 15 kts 180°
2026-05-03 22:45 28.42174 -81.29792 94 ft 17 kts 180°
2026-05-03 22:45 28.42050 -81.29789 95 ft 19 kts 179°
2026-05-03 22:45 28.41912 -81.29788 94 ft 21 kts 180°
2026-05-03 22:45 28.41760 -81.29787 95 ft 23 kts 179°
2026-05-03 22:46 28.41671 -81.29787 96 ft 9 kts 180°
2026-05-03 22:46 28.41596 -81.29786 94 ft 13 kts 179°
2026-05-03 22:46 28.41484 -81.29783 95 ft 18 kts 179°
2026-05-03 22:46 28.41349 -81.29782 95 ft 20 kts 180°
2026-05-03 22:47 28.41199 -81.29781 94 ft 23 kts 179°
2026-05-03 22:47 28.41039 -81.29780 94 ft 23 kts 180°
2026-05-03 22:47 28.40877 -81.29779 94 ft 21 kts 180°
2026-05-03 22:47 28.40819 -81.29698 94 ft 6 kts 88°
2026-05-03 22:48 28.40820 -81.29673 94 ft 0 kts 88°
2026-05-03 22:48 28.40820 -81.29672 94 ft 1 kts 88°
2026-05-03 22:48 28.40821 -81.29636 96 ft 9 kts 89°
2026-05-03 22:48 28.40848 -81.29562 93 ft 10 kts 21°
2026-05-03 22:49 28.40895 -81.29559 93 ft 12 kts
2026-05-03 22:49 28.41238 -81.29564 97 ft 83 kts 359°
2026-05-03 22:49 28.42003 -81.29572 97 ft 134 kts
2026-05-03 22:49 28.43041 -81.29602 369 ft 154 kts
2026-05-03 22:50 28.44146 -81.29593 911 ft 165 kts 13°
2026-05-03 22:50 28.45185 -81.29071 1425 ft 169 kts 42°
2026-05-03 22:50 28.46003 -81.28048 1847 ft 183 kts 53°
2026-05-03 22:50 28.46850 -81.26847 2204 ft 204 kts 51°
2026-05-03 22:51 28.47782 -81.25508 2665 ft 228 kts 52°
2026-05-03 22:51 28.48758 -81.24017 3253 ft 245 kts 61°
2026-05-03 22:51 28.49251 -81.22150 4065 ft 253 kts 88°
2026-05-03 22:51 28.48880 -81.20168 4861 ft 264 kts 117°
2026-05-03 22:52 28.47959 -81.18326 5660 ft 272 kts 121°
2026-05-03 22:52 28.46975 -81.16454 6457 ft 280 kts 122°
2026-05-03 22:52 28.45960 -81.14537 7221 ft 286 kts 122°
2026-05-03 22:52 28.44921 -81.12571 7943 ft 294 kts 123°
2026-05-03 22:53 28.43857 -81.10554 8709 ft 300 kts 123°
2026-05-03 22:53 28.42775 -81.08491 9465 ft 307 kts 123°
2026-05-03 22:53 28.41672 -81.06381 10157 ft 315 kts 124°
2026-05-03 22:53 28.40508 -81.04159 10421 ft 338 kts 124°
2026-05-03 22:54 28.39257 -81.01782 10616 ft 362 kts 124°
2026-05-03 22:54 28.37923 -80.99254 10801 ft 383 kts 124°
2026-05-03 22:54 28.36547 -80.96629 11324 ft 390 kts 124°
2026-05-03 22:54 28.35160 -80.93965 11987 ft 394 kts 124°
2026-05-03 22:55 28.33763 -80.91274 12679 ft 396 kts 124°
2026-05-03 22:55 28.32357 -80.88571 13342 ft 400 kts 124°
2026-05-03 22:55 28.30948 -80.85881 13848 ft 403 kts 124°
2026-05-03 22:55 28.29508 -80.83149 13983 ft 404 kts 125°
2026-05-03 22:56 28.28067 -80.80415 14017 ft 404 kts 125°
2026-05-03 22:56 28.26627 -80.77679 14016 ft 404 kts 125°
2026-05-03 22:56 28.25186 -80.74941 14008 ft 404 kts 125°
2026-05-03 22:56 28.23748 -80.72207 14006 ft 404 kts 125°
2026-05-03 22:57 28.22307 -80.69469 14011 ft 404 kts 124°
2026-05-03 22:57 28.20970 -80.66660 14009 ft 407 kts 117°
2026-05-03 22:57 28.19945 -80.63654 14008 ft 409 kts 114°
2026-05-03 22:57 28.18953 -80.60633 13969 ft 409 kts 114°
2026-05-03 22:58 28.17961 -80.57617 13971 ft 409 kts 114°
2026-05-03 22:58 28.16965 -80.54603 13971 ft 408 kts 114°
2026-05-03 22:58 28.15966 -80.51584 13972 ft 410 kts 114°
2026-05-03 22:58 28.14962 -80.48557 13977 ft 411 kts 114°
2026-05-03 22:59 28.13958 -80.45529 13976 ft 411 kts 114°
2026-05-03 22:59 28.12951 -80.42488 13981 ft 411 kts 114°
2026-05-03 22:59 28.11959 -80.39500 13997 ft 411 kts 115°
2026-05-03 22:59 28.10701 -80.36572 13996 ft 406 kts 126°
2026-05-03 23:00 28.09022 -80.34041 13997 ft 399 kts 137°
2026-05-03 23:00 28.06983 -80.31948 14005 ft 393 kts 149°
2026-05-03 23:00 28.04718 -80.30357 13996 ft 386 kts 159°
2026-05-03 23:00 28.02250 -80.29222 13984 ft 381 kts 166°
2026-05-03 23:01 27.99732 -80.28244 14118 ft 386 kts 166°
2026-05-03 23:01 27.97221 -80.27267 14748 ft 387 kts 166°
2026-05-03 23:01 27.94664 -80.26273 15317 ft 390 kts 167°
2026-05-03 23:01 27.92080 -80.25266 15868 ft 394 kts 167°
2026-05-03 23:02 27.89480 -80.24252 16403 ft 397 kts 167°
2026-05-03 23:02 27.86860 -80.23230 16945 ft 400 kts 167°
2026-05-03 23:02 27.84215 -80.22199 17483 ft 404 kts 167°
2026-05-03 23:02 27.81543 -80.21158 18024 ft 407 kts 168°
2026-05-03 23:03 27.78856 -80.20112 18528 ft 411 kts 168°
2026-05-03 23:03 27.76139 -80.19052 19024 ft 413 kts 168°
2026-05-03 23:03 27.73414 -80.17989 19537 ft 416 kts 168°
2026-05-03 23:03 27.70676 -80.16920 20024 ft 418 kts 168°
2026-05-03 23:04 27.67952 -80.15856 20517 ft 419 kts 168°
2026-05-03 23:04 27.65187 -80.14781 21002 ft 421 kts 168°
2026-05-03 23:04 27.62406 -80.13702 21473 ft 424 kts 169°
2026-05-03 23:04 27.59650 -80.12617 21918 ft 427 kts 168°
2026-05-03 23:05 27.56851 -80.11479 22359 ft 430 kts 168°
2026-05-03 23:05 27.54034 -80.10310 22783 ft 432 kts 168°
2026-05-03 23:05 27.51207 -80.09126 23208 ft 435 kts 168°
2026-05-03 23:05 27.48362 -80.07935 23605 ft 437 kts 168°
2026-05-03 23:06 27.45499 -80.06744 23919 ft 439 kts 168°
2026-05-03 23:06 27.42628 -80.05553 24028 ft 441 kts 168°
2026-05-03 23:06 27.39714 -80.04355 24057 ft 451 kts 168°
2026-05-03 23:06 27.36724 -80.03197 24057 ft 456 kts 170°
2026-05-03 23:07 27.33689 -80.02174 24052 ft 456 kts 172°
2026-05-03 23:07 27.30620 -80.01253 24052 ft 459 kts 173°
2026-05-03 23:07 27.27489 -80.00376 24048 ft 468 kts 174°
2026-05-03 23:07 27.24303 -79.99474 24049 ft 478 kts 173°
2026-05-03 23:08 27.21073 -79.98442 24044 ft 484 kts 171°
2026-05-03 23:08 27.17853 -79.97298 24045 ft 487 kts 169°
2026-05-03 23:08 27.14633 -79.96082 24049 ft 488 kts 168°
2026-05-03 23:08 27.11414 -79.94843 24045 ft 488 kts 168°
2026-05-03 23:09 27.08203 -79.93620 24042 ft 489 kts 168°
2026-05-03 23:09 27.04967 -79.92397 24044 ft 490 kts 168°
2026-05-03 23:09 27.01746 -79.91135 24042 ft 491 kts 167°
2026-05-03 23:09 26.98541 -79.89843 24040 ft 491 kts 167°
2026-05-03 23:10 26.95325 -79.88525 24034 ft 488 kts 167°
2026-05-03 23:10 26.92206 -79.87230 23824 ft 468 kts 167°
2026-05-03 23:10 26.89246 -79.85998 23556 ft 453 kts 167°
2026-05-03 23:10 26.86238 -79.84773 22503 ft 463 kts 167°
2026-05-03 23:11 26.83203 -79.83562 21620 ft 461 kts 167°
2026-05-03 23:11 26.80191 -79.82364 20680 ft 458 kts 166°
2026-05-03 23:11 26.77194 -79.81172 19775 ft 456 kts 166°
2026-05-03 23:11 26.74213 -79.79983 18960 ft 453 kts 166°
2026-05-03 23:12 26.72195 -79.79346 18668 ft 438 kts 174°
2026-05-03 23:12 26.69235 -79.79116 18102 ft 419 kts 188°
2026-05-03 23:12 26.66426 -79.79723 17391 ft 405 kts 202°
2026-05-03 23:12 26.63799 -79.80787 16598 ft 400 kts 204°
2026-05-03 23:13 26.61226 -79.81847 15867 ft 397 kts 204°
2026-05-03 23:13 26.58625 -79.82918 14940 ft 399 kts 204°
2026-05-03 23:13 26.56019 -79.83989 14165 ft 398 kts 204°
2026-05-03 23:13 26.53436 -79.85090 13424 ft 395 kts 205°
2026-05-03 23:14 26.50906 -79.86250 12668 ft 391 kts 206°
2026-05-03 23:14 26.48414 -79.87438 11892 ft 388 kts 206°
2026-05-03 23:14 26.45950 -79.88629 11146 ft 385 kts 206°
2026-05-03 23:14 26.43497 -79.89813 10414 ft 382 kts 206°
2026-05-03 23:15 26.41064 -79.90976 9653 ft 379 kts 206°
2026-05-03 23:15 26.38647 -79.92132 8869 ft 375 kts 208°
2026-05-03 23:15 26.36383 -79.93525 8239 ft 367 kts 213°
2026-05-03 23:15 26.34235 -79.94903 8044 ft 349 kts 212°
2026-05-03 23:16 26.32177 -79.96218 7978 ft 329 kts 212°
2026-05-03 23:16 26.30242 -79.97451 7991 ft 310 kts 213°
2026-05-03 23:16 26.28415 -79.98617 7987 ft 294 kts 213°
2026-05-03 23:16 26.26687 -79.99722 7973 ft 280 kts 213°
2026-05-03 23:17 26.25028 -80.00786 7810 ft 272 kts 213°
2026-05-03 23:17 26.23401 -80.01834 7526 ft 269 kts 213°
2026-05-03 23:17 26.21801 -80.02867 7242 ft 267 kts 213°
2026-05-03 23:17 26.20251 -80.03991 7100 ft 266 kts 221°
2026-05-03 23:18 26.18905 -80.05394 7004 ft 264 kts 231°
2026-05-03 23:18 26.17807 -80.07030 6924 ft 263 kts 240°
2026-05-03 23:18 26.16987 -80.08841 6832 ft 262 kts 249°
2026-05-03 23:18 26.16401 -80.10758 6756 ft 261 kts 252°
2026-05-03 23:19 26.15825 -80.12679 6663 ft 262 kts 252°
2026-05-03 23:19 26.15295 -80.14613 6584 ft 261 kts 258°
2026-05-03 23:19 26.15041 -80.16604 6504 ft 260 kts 266°
2026-05-03 23:19 26.15036 -80.18632 6420 ft 262 kts 269°
2026-05-03 23:20 26.15050 -80.20667 6337 ft 262 kts 269°
2026-05-03 23:20 26.15061 -80.22692 6255 ft 261 kts 269°
2026-05-03 23:20 26.15069 -80.24713 6165 ft 261 kts 269°
2026-05-03 23:20 26.15079 -80.26732 6050 ft 261 kts 270°
2026-05-03 23:21 26.15099 -80.28750 6005 ft 261 kts 270°
2026-05-03 23:21 26.15108 -80.30768 6011 ft 260 kts 269°
2026-05-03 23:21 26.15103 -80.32786 6012 ft 261 kts 269°
2026-05-03 23:21 26.15084 -80.34814 5916 ft 262 kts 268°
2026-05-03 23:22 26.15023 -80.38611 5650 ft 229 kts 267°
2026-05-03 23:22 26.14989 -80.40302 5533 ft 214 kts 268°
2026-05-03 23:22 26.14954 -80.41897 5432 ft 198 kts 268°
2026-05-03 23:23 26.14923 -80.43361 5247 ft 184 kts 268°
2026-05-03 23:23 26.14890 -80.44779 5127 ft 183 kts 268°
2026-05-03 23:23 26.14857 -80.46199 5003 ft 184 kts 268°
2026-05-03 23:23 26.14824 -80.47614 4950 ft 182 kts 268°
2026-05-03 23:24 26.14791 -80.49037 5017 ft 185 kts 268°
2026-05-03 23:24 26.14759 -80.50466 5016 ft 184 kts 268°
2026-05-03 23:24 26.14728 -80.51893 4991 ft 185 kts 268°
2026-05-03 23:24 26.14698 -80.53322 4793 ft 184 kts 268°
2026-05-03 23:25 26.14669 -80.54749 4600 ft 184 kts 269°
2026-05-03 23:25 26.14638 -80.56178 4401 ft 185 kts 269°
2026-05-03 23:25 26.14607 -80.57605 4206 ft 184 kts 269°
2026-05-03 23:25 26.14533 -80.59026 4006 ft 185 kts 258°
2026-05-03 23:26 26.13853 -80.60213 3815 ft 187 kts 218°
2026-05-03 23:26 26.12617 -80.60632 3621 ft 193 kts 177°
2026-05-03 23:26 26.11287 -80.60316 3420 ft 198 kts 166°
2026-05-03 23:26 26.09988 -80.59856 3434 ft 193 kts 162°
2026-05-03 23:27 26.08698 -80.59391 3699 ft 197 kts 163°
2026-05-03 23:27 26.07545 -80.58590 3940 ft 202 kts 127°
2026-05-03 23:27 26.07198 -80.57147 4008 ft 188 kts 77°
2026-05-03 23:27 26.07695 -80.55880 4033 ft 181 kts 62°
2026-05-03 23:28 26.07875 -80.54514 4028 ft 182 kts 97°
2026-05-03 23:28 26.07807 -80.53111 4022 ft 182 kts 89°
2026-05-03 23:28 26.07828 -80.51699 4014 ft 182 kts 90°
2026-05-03 23:28 26.07834 -80.50289 4015 ft 183 kts 90°
2026-05-03 23:29 26.07832 -80.48872 4019 ft 183 kts 91°
2026-05-03 23:29 26.07828 -80.47460 4017 ft 182 kts 91°
2026-05-03 23:29 26.07824 -80.46048 4014 ft 183 kts 91°
2026-05-03 23:29 26.07819 -80.44618 4015 ft 186 kts 90°
2026-05-03 23:30 26.07814 -80.43158 4010 ft 191 kts 90°
2026-05-03 23:30 26.07809 -80.41680 4011 ft 191 kts 91°
2026-05-03 23:30 26.07803 -80.40194 3954 ft 193 kts 90°
2026-05-03 23:30 26.07797 -80.38710 3768 ft 191 kts 90°
2026-05-03 23:31 26.07792 -80.37237 3530 ft 189 kts 90°
2026-05-03 23:31 26.07786 -80.35775 3295 ft 188 kts 90°
2026-05-03 23:31 26.07780 -80.34315 3054 ft 190 kts 90°
2026-05-03 23:31 26.07773 -80.32847 2804 ft 190 kts 90°
2026-05-03 23:32 26.07767 -80.31377 2557 ft 187 kts 90°
2026-05-03 23:32 26.07761 -80.29955 2316 ft 185 kts 90°
2026-05-03 23:32 26.07754 -80.28548 2079 ft 183 kts 89°
2026-05-03 23:32 26.07747 -80.27121 1838 ft 181 kts 90°
2026-05-03 23:33 26.07741 -80.25722 1597 ft 180 kts 89°
2026-05-03 23:33 26.07734 -80.24330 1360 ft 181 kts 89°
2026-05-03 23:33 26.07727 -80.22941 1121 ft 182 kts 89°
2026-05-03 23:33 26.07720 -80.21567 890 ft 166 kts 88°
2026-05-03 23:34 26.07714 -80.20358 690 ft 155 kts 88°
2026-05-03 23:34 26.07721 -80.19187 451 ft 149 kts 89°
2026-05-03 23:34 26.07705 -80.18023 287 ft 148 kts 88°
2026-05-03 23:34 26.07699 -80.16864 118 ft 152 kts 88°
2026-05-03 23:35 26.07690 -80.15757 20 ft 129 kts 87°
2026-05-03 23:35 26.07686 -80.14931 18 ft 76 kts 91°
2026-05-03 23:35 26.07628 -80.14612 18 ft 21 kts 135°
2026-05-03 23:35 26.07584 -80.14594 17 ft 0 kts 188°
2026-05-03 23:36 26.07583 -80.14595 17 ft 1 kts 189°
2026-05-03 23:36 26.07582 -80.14595 17 ft 0 kts 189°
2026-05-03 23:36 26.07581 -80.14595 17 ft 0 kts 189°
2026-05-03 23:37 26.07580 -80.14595 17 ft 0 kts 189°